| time (UTC) | temp F | wind direction | speed MPH | gust MPH | rain 1hr in | rain 24hr in | rain mn in | humidity % | barometer mb |
| 20260505173341 | 64 | 56 | 5.0 | 9.0 | 0.00 | 0.00 | 0.00 | 75 | 1005.9 |
| 20260505173017 | 64 | 9 | 3.0 | 12.0 | 0.00 | 0.00 | 0.00 | 73 | 1005.9 |
| 20260505172950 | 64 | 29 | 6.0 | 9.0 | 0.00 | 0.00 | 0.00 | 75 | 1005.9 |
| 20260505172409 | 64 | 8 | 7.0 | 9.0 | 0.00 | 0.00 | 0.00 | 74 | 1005.9 |
| 20260505171340 | 64 | 20 | 8.0 | 12.0 | 0.00 | 0.00 | 0.00 | 73 | 1005.9 |
| 20260505170839 | 64 | 15 | 6.0 | 14.0 | 0.00 | 0.00 | 0.00 | 73 | 1006.1 |
| 20260505170339 | 65 | 22 | 8.0 | 14.0 | 0.00 | 0.00 | 0.00 | 73 | 1005.9 |
| 20260505165840 | 65 | 41 | 5.0 | 13.0 | 0.00 | 0.00 | 0.00 | 73 | 1006.0 |
| 20260505165341 | 65 | 19 | 6.0 | 13.0 | 0.00 | 0.00 | 0.00 | 73 | 1006.0 |
| 20260505164842 | 65 | 26 | 10.0 | 13.0 | 0.00 | 0.00 | 0.00 | 72 | 1006.0 |
| 20260505164408 | 66 | 34 | 7.0 | 10.0 | 0.00 | 0.00 | 0.00 | 72 | 1006.0 |
| 20260505164359 | 66 | 358 | 10.0 | 13.0 | 0.00 | 0.00 | 0.00 | 72 | 1006.1 |
| 20260505163339 | 66 | 29 | 6.0 | 12.0 | 0.00 | 0.00 | 0.00 | 70 | 1006.0 |
| 20260505163114 | 66 | 8 | 9.0 | 12.0 | 0.00 | 0.00 | 0.00 | 70 | 1006.0 |
| 20260505162339 | 67 | 6 | 6.0 | 11.0 | 0.00 | 0.00 | 0.00 | 70 | 1006.1 |
| 20260505162120 | 67 | 32 | 7.0 | 11.0 | 0.00 | 0.00 | 0.00 | 69 | 1006.1 |
| 20260505161622 | 67 | 47 | 6.0 | 9.0 | 0.00 | 0.00 | 0.00 | 69 | 1006.2 |
| 20260505160839 | 67 | 30 | 5.0 | 11.0 | 0.00 | 0.00 | 0.00 | 69 | 1006.1 |
| 20260505160338 | 67 | 10 | 7.0 | 12.0 | 0.00 | 0.00 | 0.00 | 69 | 1006.2 |
| 20260505152837 | 68 | 44 | 8.0 | 13.0 | 0.00 | 0.00 | 0.00 | 68 | 1006.1 |
| 20260505152338 | 68 | 46 | 7.0 | 14.0 | 0.00 | 0.00 | 0.00 | 68 | 1006.2 |
| 20260505151837 | 68 | 25 | 7.0 | 14.0 | 0.00 | 0.00 | 0.00 | 68 | 1006.1 |
| 20260505151337 | 69 | 58 | 9.0 | 13.0 | 0.00 | 0.00 | 0.00 | 69 | 1006.1 |
| 20260505150839 | 69 | 10 | 9.0 | 16.0 | 0.00 | 0.00 | 0.00 | 68 | 1006.1 |
| 20260505150615 | 69 | 354 | 11.0 | 16.0 | 0.00 | 0.00 | 0.00 | 68 | 1006.2 |
| 20260505140334 | 70 | 32 | 7.0 | 14.0 | 0.00 | 0.00 | 0.00 | 68 | 1006.7 |
| 20260505124806 | 69 | 29 | 5.0 | 11.0 | 0.00 | 0.00 | 0.00 | 68 | 1006.9 |
| 20260505124303 | 69 | 34 | 5.0 | 11.0 | 0.00 | 0.00 | 0.00 | 68 | 1006.9 |
| 20260505124041 | 69 | 46 | 5.0 | 11.0 | 0.00 | 0.00 | 0.00 | 68 | 1006.9 |
| 20260505123302 | 69 | 19 | 6.0 | 11.0 | 0.00 | 0.00 | 0.00 | 68 | 1006.9 |
| 20260505123053 | 69 | 50 | 2.0 | 14.0 | 0.00 | 0.00 | 0.00 | 68 | 1006.9 |
| 20260505122305 | 69 | 19 | 8.0 | 14.0 | 0.00 | 0.00 | 0.00 | 68 | 1007.0 |
| 20260505121806 | 69 | 65 | 7.0 | 13.0 | 0.00 | 0.00 | 0.00 | 69 | 1006.9 |
| 20260505121305 | 69 | 20 | 10.0 | 13.0 | 0.00 | 0.00 | 0.00 | 68 | 1006.9 |
| 20260505120807 | 69 | 10 | 10.0 | 19.0 | 0.00 | 0.00 | 0.00 | 68 | 1006.9 |
| 20260505120303 | 70 | 12 | 15.0 | 19.0 | 0.00 | 0.00 | 0.00 | 68 | 1006.8 |
| 20260505115804 | 70 | 6 | 9.0 | 17.0 | 0.00 | 0.00 | 0.00 | 67 | 1006.9 |
| 20260505115305 | 69 | 8 | 9.0 | 16.0 | 0.00 | 0.00 | 0.00 | 69 | 1006.8 |
| 20260505115046 | 69 | 3 | 5.0 | 14.0 | 0.00 | 0.00 | 0.00 | 69 | 1006.9 |
| 20260505114305 | 69 | 30 | 5.0 | 15.0 | 0.00 | 0.00 | 0.00 | 69 | 1006.9 |
| 20260505113804 | 69 | 22 | 6.0 | 15.0 | 0.00 | 0.00 | 0.00 | 68 | 1006.9 |
| 20260505113304 | 69 | 5 | 9.0 | 14.0 | 0.00 | 0.00 | 0.00 | 68 | 1006.9 |
| 20260505112805 | 69 | 2 | 9.0 | 16.0 | 0.00 | 0.00 | 0.00 | 67 | 1007.0 |
| 20260505112301 | 69 | 18 | 12.0 | 16.0 | 0.00 | 0.00 | 0.00 | 66 | 1006.9 |
| 20260505111805 | 70 | 10 | 9.0 | 16.0 | 0.00 | 0.00 | 0.00 | 64 | 1007.0 |
| 20260505111306 | 71 | 18 | 11.0 | 14.0 | 0.00 | 0.00 | 0.00 | 64 | 1007.1 |
| 20260505110804 | 73 | 335 | 4.0 | 14.0 | 0.00 | 0.00 | 0.00 | 65 | 1007.1 |
| 20260505110545 | 73 | 315 | 6.0 | 14.0 | 0.00 | 0.00 | 0.00 | 65 | 1007.0 |
| 20260505101737 | 71 | 9 | 6.0 | 11.0 | 0.00 | 0.00 | 0.00 | 64 | 1007.4 |
| 20260505101230 | 71 | 354 | 7.0 | 12.0 | 0.00 | 0.00 | 0.00 | 65 | 1007.4 |
| 20260505101036 | 71 | 3 | 3.0 | 14.0 | 0.00 | 0.00 | 0.00 | 66 | 1007.4 |
| 20260505100231 | 71 | 352 | 12.0 | 14.0 | 0.00 | 0.00 | 0.00 | 66 | 1007.4 |
| 20260505100014 | 70 | 327 | 2.0 | 14.0 | 0.00 | 0.00 | 0.00 | 67 | 1007.5 |
| 20260505095231 | 70 | 352 | 7.0 | 14.0 | 0.00 | 0.00 | 0.00 | 65 | 1007.5 |
| 20260505094731 | 71 | 26 | 7.0 | 13.0 | 0.00 | 0.00 | 0.00 | 65 | 1007.5 |
| 20260505094231 | 71 | 8 | 8.0 | 12.0 | 0.00 | 0.00 | 0.00 | 65 | 1007.4 |
| 20260505094011 | 71 | 8 | 4.0 | 13.0 | 0.00 | 0.00 | 0.00 | 65 | 1007.5 |
| 20260505093514 | 71 | 10 | 7.0 | 13.0 | 0.00 | 0.00 | 0.00 | 64 | 1007.6 |
| 20260505092729 | 71 | 8 | 7.0 | 11.0 | 0.00 | 0.00 | 0.00 | 65 | 1007.6 |
| 20260505092231 | 70 | 20 | 6.0 | 12.0 | 0.00 | 0.00 | 0.00 | 66 | 1007.6 |
| 20260505091730 | 70 | 356 | 7.0 | 12.0 | 0.00 | 0.00 | 0.00 | 66 | 1007.5 |
| 20260505091229 | 69 | 51 | 4.0 | 11.0 | 0.00 | 0.00 | 0.00 | 67 | 1007.6 |
| 20260505090730 | 68 | 19 | 6.0 | 11.0 | 0.00 | 0.00 | 0.00 | 69 | 1007.5 |
| 20260505090228 | 67 | 36 | 4.0 | 7.0 | 0.00 | 0.00 | 0.00 | 69 | 1007.6 |
| 20260505085728 | 67 | 105 | 6.0 | 10.0 | 0.00 | 0.00 | 0.00 | 70 | 1007.6 |
| 20260505085231 | 67 | 39 | 6.0 | 10.0 | 0.00 | 0.00 | 0.00 | 70 | 1007.6 |
| 20260505084730 | 67 | 30 | 6.0 | 9.0 | 0.00 | 0.00 | 0.00 | 70 | 1007.7 |
| 20260505084230 | 66 | 22 | 4.0 | 9.0 | 0.00 | 0.00 | 0.00 | 70 | 1007.8 |
| 20260505084016 | 67 | 29 | 4.0 | 7.0 | 0.00 | 0.00 | 0.00 | 70 | 1007.9 |
| 20260505083229 | 67 | 12 | 4.0 | 9.0 | 0.00 | 0.00 | 0.00 | 69 | 1007.9 |
| 20260505082729 | 67 | 13 | 4.0 | 9.0 | 0.00 | 0.00 | 0.00 | 68 | 1008.0 |
| 20260505082229 | 67 | 30 | 4.0 | 6.0 | 0.00 | 0.00 | 0.00 | 68 | 1008.0 |
| 20260505081727 | 67 | 356 | 3.0 | 5.0 | 0.00 | 0.00 | 0.00 | 69 | 1008.1 |
| 20260505081229 | 67 | 328 | 2.0 | 3.0 | 0.00 | 0.00 | 0.00 | 69 | 1008.1 |
| 20260505080729 | 67 | 356 | 2.0 | 5.0 | 0.00 | 0.00 | 0.00 | 69 | 1008.2 |
| 20260505080227 | 67 | 356 | 2.0 | 6.0 | 0.00 | 0.00 | 0.00 | 69 | 1008.2 |
| 20260505075729 | 67 | 16 | 4.0 | 6.0 | 0.00 | 0.00 | 0.00 | 69 | 1008.3 |
| 20260505075227 | 66 | 25 | 3.0 | 5.0 | 0.00 | 0.00 | 0.00 | 70 | 1008.3 |
| 20260505075019 | 66 | 33 | 2.0 | 5.0 | 0.00 | 0.00 | 0.00 | 70 | 1008.3 |
| 20260505074227 | 66 | 41 | 2.0 | 5.0 | 0.00 | 0.00 | 0.00 | 71 | 1008.3 |
| 20260505074012 | 65 | 74 | 1.0 | 4.0 | 0.00 | 0.00 | 0.00 | 72 | 1008.3 |
| 20260505073228 | 65 | 74 | 2.0 | 7.0 | 0.00 | 0.00 | 0.00 | 71 | 1008.2 |
| 20260505072726 | 64 | 47 | 6.0 | 7.0 | 0.00 | 0.00 | 0.00 | 72 | 1008.3 |
| 20260505072228 | 64 | 1 | 4.0 | 5.0 | 0.00 | 0.00 | 0.00 | 73 | 1008.4 |
| 20260505071727 | 64 | 39 | 1.0 | 5.0 | 0.00 | 0.00 | 0.00 | 72 | 1008.4 |
| 20260505071226 | 64 | 41 | 4.0 | 5.0 | 0.00 | 0.00 | 0.00 | 73 | 1008.4 |
| 20260505070727 | 63 | 74 | 2.0 | 6.0 | 0.00 | 0.00 | 0.00 | 73 | 1008.2 |
| 20260505070227 | 63 | 37 | 4.0 | 6.0 | 0.00 | 0.00 | 0.00 | 73 | 1008.2 |
| 20260505065727 | 63 | 58 | 3.0 | 6.0 | 0.00 | 0.00 | 0.00 | 73 | 1008.1 |
| 20260505065228 | 63 | 56 | 4.0 | 9.0 | 0.00 | 0.00 | 0.00 | 72 | 1008.1 |
| 20260505064728 | 64 | 80 | 5.0 | 9.0 | 0.00 | 0.00 | 0.00 | 72 | 1008.2 |
| 20260505064226 | 64 | 108 | 4.0 | 9.0 | 0.00 | 0.00 | 0.00 | 72 | 1008.2 |
| 20260505063727 | 64 | 89 | 6.0 | 9.0 | 0.00 | 0.00 | 0.00 | 74 | 1008.2 |
| 20260505063225 | 63 | 98 | 4.0 | 6.0 | 0.00 | 0.00 | 0.00 | 75 | 1008.2 |
| 20260505062725 | 62 | 71 | 2.0 | 7.0 | 0.00 | 0.00 | 0.00 | 74 | 1008.2 |
| 20260505062226 | 62 | 77 | 5.0 | 10.0 | 0.00 | 0.00 | 0.00 | 75 | 1008.2 |
| 20260505061726 | 61 | 37 | 5.0 | 10.0 | 0.00 | 0.00 | 0.00 | 75 | 1008.2 |
| 20260505061228 | 61 | 108 | 4.0 | 5.0 | 0.00 | 0.00 | 0.00 | 75 | 1008.1 |
| 20260505060728 | 60 | 68 | 2.0 | 7.0 | 0.00 | 0.00 | 0.00 | 75 | 1008.3 |
| 20260505060227 | 60 | 49 | 5.0 | 7.0 | 0.00 | 0.00 | 0.00 | 75 | 1008.2 |
| 20260505055726 | 60 | 68 | 4.0 | 6.0 | 0.00 | 0.00 | 0.00 | 76 | 1008.1 |
| 20260505055225 | 60 | 88 | 2.0 | 7.0 | 0.00 | 0.00 | 0.00 | 76 | 1008.1 |
| 20260505054727 | 59 | 36 | 5.0 | 7.0 | 0.00 | 0.00 | 0.00 | 76 | 1008.0 |
| 20260505054225 | 59 | 27 | 4.0 | 7.0 | 0.00 | 0.00 | 0.00 | 76 | 1008.0 |
| 20260505053725 | 59 | 44 | 6.0 | 7.0 | 0.00 | 0.00 | 0.00 | 76 | 1008.1 |
| 20260505053227 | 58 | 36 | 3.0 | 7.0 | 0.00 | 0.00 | 0.00 | 76 | 1008.1 |
| 20260505052724 | 58 | 44 | 3.0 | 10.0 | 0.00 | 0.00 | 0.00 | 76 | 1008.0 |
| 20260505052227 | 58 | 29 | 6.0 | 10.0 | 0.00 | 0.00 | 0.00 | 76 | 1008.0 |
| 20260505051727 | 58 | 51 | 4.0 | 7.0 | 0.00 | 0.00 | 0.00 | 76 | 1008.1 |
| 20260505051226 | 58 | 70 | 5.0 | 9.0 | 0.00 | 0.00 | 0.00 | 76 | 1008.1 |
| 20260505050728 | 58 | 19 | 5.0 | 9.0 | 0.00 | 0.00 | 0.00 | 76 | 1008.1 |
| 20260505050226 | 58 | 43 | 4.0 | 6.0 | 0.00 | 0.00 | 0.00 | 76 | 1008.1 |
| 20260505041724 | 59 | 67 | 2.0 | 3.0 | 0.00 | 0.00 | 0.00 | 75 | 1008.5 |
| 20260505041224 | 59 | 67 | 2.0 | 3.0 | 0.00 | 0.00 | 0.00 | 75 | 1008.5 |
| 20260505040704 | 59 | 67 | 1.0 | 4.0 | 0.00 | 0.00 | 0.00 | 75 | 1008.5 |
| 20260505040206 | 59 | 67 | 2.0 | 4.0 | 0.00 | 0.00 | 0.00 | 75 | 1008.4 |
| 20260505035705 | 59 | 58 | 2.0 | 4.0 | 0.00 | 0.00 | 0.00 | 75 | 1008.4 |
| 20260505035204 | 59 | 57 | 3.0 | 4.0 | 0.00 | 0.00 | 0.00 | 75 | 1008.5 |
| 20260505034703 | 59 | 80 | 2.0 | 5.0 | 0.00 | 0.00 | 0.00 | 75 | 1008.6 |
| 20260505034202 | 59 | 80 | 2.0 | 5.0 | 0.00 | 0.00 | 0.00 | 75 | 1008.7 |
| 20260505033705 | 59 | 81 | 2.0 | 5.0 | 0.00 | 0.00 | 0.00 | 75 | 1008.7 |
| 20260505033203 | 59 | 80 | 3.0 | 5.0 | 0.00 | 0.00 | 0.00 | 75 | 1008.8 |
| 20260505032703 | 59 | 71 | 1.0 | 3.0 | 0.00 | 0.00 | 0.00 | 75 | 1008.7 |
| 20260505032202 | 60 | 71 | 3.0 | 5.0 | 0.00 | 0.00 | 0.00 | 75 | 1008.8 |
| 20260505031703 | 60 | 71 | 2.0 | 5.0 | 0.00 | 0.00 | 0.00 | 75 | 1008.8 |
| 20260505031202 | 60 | 71 | 2.0 | 4.0 | 0.00 | 0.00 | 0.00 | 75 | 1008.8 |
| 20260505030704 | 60 | 73 | 2.0 | 4.0 | 0.00 | 0.00 | 0.00 | 75 | 1008.8 |
| 20260505030203 | 60 | 80 | 3.0 | 4.0 | 0.00 | 0.00 | 0.00 | 75 | 1008.8 |
| 20260505025947 | 60 | 85 | 3.0 | 4.0 | 0.00 | 0.00 | 0.00 | 75 | 1009.0 |
| 20260505025203 | 60 | 81 | 4.0 | 5.0 | 0.00 | 0.00 | 0.00 | 75 | 1009.1 |
| 20260505024951 | 59 | 74 | 3.0 | 6.0 | 0.00 | 0.00 | 0.00 | 75 | 1009.1 |
| 20260505024204 | 59 | 57 | 4.0 | 6.0 | 0.00 | 0.00 | 0.00 | 75 | 1009.1 |
| 20260505023704 | 59 | 65 | 2.0 | 5.0 | 0.00 | 0.00 | 0.00 | 75 | 1009.2 |
| 20260505023203 | 59 | 65 | 3.0 | 5.0 | 0.00 | 0.00 | 0.00 | 75 | 1009.3 |
| 20260505022706 | 59 | 347 | 3.0 | 4.0 | 0.00 | 0.00 | 0.00 | 75 | 1009.2 |
| 20260505022202 | 59 | 325 | 2.0 | 4.0 | 0.00 | 0.00 | 0.00 | 75 | 1009.3 |
| 20260505021704 | 58 | 324 | 2.0 | 4.0 | 0.00 | 0.00 | 0.00 | 75 | 1009.3 |
| 20260505021204 | 58 | 297 | 2.0 | 4.0 | 0.00 | 0.00 | 0.00 | 75 | 1009.3 |
| 20260505020704 | 58 | 292 | 2.0 | 3.0 | 0.00 | 0.00 | 0.00 | 75 | 1009.3 |
| 20260505020207 | 58 | 292 | 2.0 | 3.0 | 0.00 | 0.00 | 0.00 | 75 | 1009.3 |
| 20260505015703 | 58 | 292 | 2.0 | 3.0 | 0.00 | 0.00 | 0.00 | 75 | 1009.3 |
| 20260505015437 | 58 | 292 | 2.0 | 3.0 | 0.00 | 0.00 | 0.00 | 76 | 1009.3 |
| 20260505014702 | 58 | 290 | 2.0 | 3.0 | 0.00 | 0.00 | 0.00 | 76 | 1009.4 |
| 20260505014203 | 58 | 286 | 2.0 | 3.0 | 0.00 | 0.00 | 0.00 | 76 | 1009.4 |
| 20260505013650 | 57 | 286 | 2.0 | 3.0 | 0.00 | 0.00 | 0.00 | 76 | 1009.5 |
| 20260505013140 | 57 | 286 | 2.0 | 3.0 | 0.00 | 0.00 | 0.00 | 76 | 1009.6 |
| 20260505012638 | 57 | 286 | 2.0 | 3.0 | 0.00 | 0.00 | 0.00 | 76 | 1009.5 |
| 20260505012132 | 57 | 286 | 1.0 | 2.0 | 0.00 | 0.00 | 0.00 | 76 | 1009.6 |
| 20260505011634 | 57 | 286 | 0.0 | 2.0 | 0.00 | 0.00 | 0.00 | 76 | 1009.7 |
| 20260505011132 | 57 | 286 | 0.0 | 2.0 | 0.00 | 0.00 | 0.00 | 76 | 1009.7 |
| 20260505010635 | 57 | 286 | 1.0 | 2.0 | 0.00 | 0.00 | 0.00 | 77 | 1009.8 |
| 20260505010418 | 56 | 286 | 1.0 | 4.0 | 0.00 | 0.00 | 0.00 | 77 | 1009.7 |
| 20260505005633 | 56 | 286 | 1.0 | 4.0 | 0.00 | 0.00 | 0.00 | 77 | 1009.9 |
| 20260505005140 | 56 | 284 | 2.0 | 3.0 | 0.00 | 0.00 | 0.00 | 77 | 1009.9 |
| 20260505004636 | 56 | 284 | 1.0 | 2.0 | 0.00 | 0.00 | 0.00 | 77 | 1010.0 |
| 20260505004133 | 56 | 284 | 1.0 | 3.0 | 0.00 | 0.00 | 0.00 | 77 | 1009.9 |
| 20260505003644 | 56 | 284 | 2.0 | 3.0 | 0.00 | 0.00 | 0.00 | 77 | 1009.9 |
| 20260505003132 | 56 | 283 | 2.0 | 3.0 | 0.00 | 0.00 | 0.00 | 77 | 1009.9 |
| 20260505002634 | 56 | 268 | 0.0 | 0.0 | 0.00 | 0.00 | 0.00 | 76 | 1010.0 |
| 20260505002132 | 56 | 268 | 0.0 | 0.0 | 0.00 | 0.00 | 0.00 | 76 | 1010.1 |
| 20260505001632 | 56 | 268 | 0.0 | 0.0 | 0.00 | 0.00 | 0.00 | 76 | 1010.2 |
| 20260505001134 | 56 | 268 | 0.0 | 1.0 | 0.00 | 0.00 | 0.00 | 76 | 1010.2 |
| 20260505001000 | 56 | 268 | 0.0 | 1.0 | 0.00 | 0.00 | 0.00 | 76 | 1010.3 |
| 20260505000705 | 56 | 268 | 0.0 | 1.0 | 0.00 | 0.00 | 0.00 | 76 | 1010.3 |
| 20260504235729 | 56 | 268 | 1.0 | 2.0 | 0.00 | 0.00 | 0.00 | 76 | 1010.5 |
| 20260504235708 | 56 | 268 | 0.0 | 2.0 | 0.00 | 0.00 | 0.00 | 76 | 1010.4 |
| 20260504234636 | 56 | 268 | 1.0 | 2.0 | 0.00 | 0.00 | 0.00 | 75 | 1010.5 |
| 20260504234131 | 56 | 268 | 1.0 | 2.0 | 0.00 | 0.00 | 0.00 | 75 | 1010.4 |
| 20260504233915 | 56 | 268 | 1.0 | 2.0 | 0.00 | 0.00 | 0.00 | 75 | 1010.4 |
| 20260504233132 | 56 | 268 | 0.0 | 0.0 | 0.00 | 0.00 | 0.00 | 75 | 1010.3 |
| 20260504232634 | 57 | 268 | 0.0 | 0.0 | 0.00 | 0.00 | 0.00 | 75 | 1010.3 |
| 20260504232414 | 57 | 268 | 0.0 | 1.0 | 0.00 | 0.00 | 0.00 | 75 | 1010.4 |
| 20260504231633 | 57 | 268 | 0.0 | 2.0 | 0.00 | 0.00 | 0.00 | 74 | 1010.4 |
| 20260504231132 | 57 | 268 | 1.0 | 2.0 | 0.00 | 0.00 | 0.00 | 74 | 1010.4 |
| 20260504230633 | 57 | 268 | 1.0 | 1.0 | 0.00 | 0.00 | 0.00 | 74 | 1010.7 |
| 20260504230133 | 57 | 268 | 0.0 | 0.0 | 0.00 | 0.00 | 0.00 | 74 | 1010.5 |
| 20260504225633 | 58 | 268 | 0.0 | 0.0 | 0.00 | 0.00 | 0.00 | 74 | 1010.7 |
| 20260504225132 | 58 | 268 | 0.0 | 0.0 | 0.00 | 0.00 | 0.00 | 74 | 1010.7 |
| 20260504224634 | 58 | 268 | 0.0 | 0.0 | 0.00 | 0.00 | 0.00 | 74 | 1010.7 |
| 20260504224132 | 58 | 268 | 0.0 | 0.0 | 0.00 | 0.00 | 0.00 | 74 | 1010.7 |
| 20260504223634 | 58 | 268 | 0.0 | 0.0 | 0.00 | 0.00 | 0.00 | 74 | 1010.5 |
| 20260504223133 | 58 | 268 | 0.0 | 0.0 | 0.00 | 0.00 | 0.00 | 74 | 1010.8 |
| 20260504222635 | 58 | 268 | 0.0 | 0.0 | 0.00 | 0.00 | 0.00 | 73 | 1010.7 |
| 20260504222139 | 58 | 268 | 0.0 | 0.0 | 0.00 | 0.00 | 0.00 | 73 | 1010.8 |
| 20260504221632 | 58 | 268 | 0.0 | 0.0 | 0.00 | 0.00 | 0.00 | 73 | 1010.8 |
| 20260504221131 | 59 | 268 | 0.0 | 0.0 | 0.00 | 0.00 | 0.00 | 73 | 1010.9 |
| 20260504220636 | 59 | 268 | 0.0 | 0.0 | 0.00 | 0.00 | 0.00 | 73 | 1010.8 |
| 20260504220133 | 59 | 268 | 0.0 | 0.0 | 0.00 | 0.00 | 0.00 | 73 | 1010.9 |
| 20260504215621 | 59 | 268 | 0.0 | 0.0 | 0.00 | 0.00 | 0.00 | 72 | 1010.9 |
| 20260504215118 | 59 | 268 | 0.0 | 1.0 | 0.00 | 0.00 | 0.00 | 72 | 1010.8 |
| 20260504214620 | 59 | 268 | 0.0 | 1.0 | 0.00 | 0.00 | 0.00 | 72 | 1010.9 |
| 20260504214116 | 60 | 268 | 0.0 | 1.0 | 0.00 | 0.00 | 0.00 | 71 | 1010.9 |
| 20260504213623 | 60 | 268 | 0.0 | 0.0 | 0.00 | 0.00 | 0.00 | 71 | 1010.9 |
| 20260504213119 | 60 | 268 | 0.0 | 0.0 | 0.00 | 0.00 | 0.00 | 71 | 1011.0 |
| 20260504212621 | 60 | 268 | 0.0 | 0.0 | 0.00 | 0.00 | 0.00 | 71 | 1010.9 |
| 20260504212118 | 60 | 268 | 0.0 | 1.0 | 0.00 | 0.00 | 0.00 | 71 | 1011.0 |
| 20260504211621 | 60 | 268 | 0.0 | 1.0 | 0.00 | 0.00 | 0.00 | 70 | 1011.0 |
| 20260504211117 | 60 | 268 | 0.0 | 1.0 | 0.00 | 0.00 | 0.00 | 70 | 1011.1 |
| 20260504210622 | 60 | 268 | 0.0 | 0.0 | 0.00 | 0.00 | 0.00 | 69 | 1010.9 |
| 20260504210118 | 60 | 268 | 0.0 | 2.0 | 0.00 | 0.00 | 0.00 | 69 | 1011.0 |
| 20260504205623 | 61 | 268 | 0.0 | 2.0 | 0.00 | 0.00 | 0.00 | 69 | 1010.9 |
| 20260504205118 | 61 | 268 | 2.0 | 2.0 | 0.00 | 0.00 | 0.00 | 68 | 1011.0 |
| 20260504204622 | 61 | 268 | 0.0 | 0.0 | 0.00 | 0.00 | 0.00 | 67 | 1010.9 |
| 20260504204117 | 61 | 268 | 0.0 | 0.0 | 0.00 | 0.00 | 0.00 | 67 | 1010.9 |
| 20260504203624 | 62 | 268 | 0.0 | 0.0 | 0.00 | 0.00 | 0.00 | 67 | 1011.0 |
| 20260504203117 | 62 | 268 | 0.0 | 0.0 | 0.00 | 0.00 | 0.00 | 66 | 1010.9 |
| 20260504202618 | 62 | 268 | 0.0 | 0.0 | 0.00 | 0.00 | 0.00 | 66 | 1011.0 |
| 20260504202117 | 62 | 268 | 0.0 | 0.0 | 0.00 | 0.00 | 0.00 | 65 | 1011.0 |
| 20260504201700 | 63 | 268 | 0.0 | 0.0 | 0.00 | 0.00 | 0.00 | 64 | 1011.0 |
| 20260504201645 | 63 | 268 | 0.0 | 0.0 | 0.00 | 0.00 | 0.00 | 65 | 1011.1 |
| 20260504200624 | 63 | 268 | 0.0 | 0.0 | 0.00 | 0.00 | 0.00 | 63 | 1011.0 |
| 20260504200407 | 0 | 0.0 | 0.0 | 0.00 | 0.00 | 0.00 | 1011.0 | ||
| 20260504195834 | 64 | 268 | 0.0 | 0.0 | 0.00 | 0.00 | 0.00 | 62 | 1011.0 |
| 20260504195333 | 64 | 268 | 0.0 | 2.0 | 0.00 | 0.00 | 0.00 | 62 | 1011.1 |
| 20260504194832 | 64 | 268 | 1.0 | 2.0 | 0.00 | 0.00 | 0.00 | 61 | 1011.0 |
| 20260504194614 | 64 | 268 | 1.0 | 2.0 | 0.00 | 0.00 | 0.00 | 60 | 1011.0 |
| 20260504193833 | 64 | 268 | 2.0 | 2.0 | 0.00 | 0.00 | 0.00 | 60 | 1011.1 |
| 20260504193323 | 65 | 268 | 1.0 | 2.0 | 0.00 | 0.00 | 0.00 | 60 | 1011.0 |
| 20260504193041 | 65 | 268 | 1.0 | 2.0 | 0.00 | 0.00 | 0.00 | 60 | 1011.0 |
| 20260504192306 | 65 | 268 | 1.0 | 2.0 | 0.00 | 0.00 | 0.00 | 59 | 1010.8 |
| 20260504192046 | 66 | 268 | 1.0 | 2.0 | 0.00 | 0.00 | 0.00 | 59 | 1010.8 |
| 20260504191306 | 66 | 268 | 1.0 | 1.0 | 0.00 | 0.00 | 0.00 | 59 | 1010.9 |
| 20260504190806 | 67 | 268 | 0.0 | 0.0 | 0.00 | 0.00 | 0.00 | 57 | 1010.8 |
| 20260504190306 | 67 | 268 | 0.0 | 2.0 | 0.00 | 0.00 | 0.00 | 56 | 1010.8 |
| 20260504190035 | 67 | 268 | 1.0 | 2.0 | 0.00 | 0.00 | 0.00 | 56 | 1010.8 |
| 20260504185304 | 68 | 268 | 1.0 | 2.0 | 0.00 | 0.00 | 0.00 | 55 | 1010.8 |
| 20260504184805 | 68 | 268 | 0.0 | 2.0 | 0.00 | 0.00 | 0.00 | 55 | 1010.8 |
| 20260504184259 | 69 | 268 | 1.0 | 3.0 | 0.00 | 0.00 | 0.00 | 54 | 1010.7 |
| 20260504183734 | 69 | 245 | 2.0 | 3.0 | 0.00 | 0.00 | 0.00 | 53 | 1010.7 |
| 20260504183515 | 69 | 234 | 1.0 | 3.0 | 0.00 | 0.00 | 0.00 | 53 | 1010.5 |
| 20260504182733 | 70 | 272 | 1.0 | 3.0 | 0.00 | 0.00 | 0.00 | 53 | 1010.4 |
| 20260504182514 | 70 | 306 | 1.0 | 2.0 | 0.00 | 0.00 | 0.00 | 52 | 1010.4 |
| 20260504182029 | 70 | 306 | 0.0 | 4.0 | 0.00 | 0.00 | 0.00 | 52 | 1010.4 |
| 20260504181234 | 71 | 306 | 1.0 | 4.0 | 0.00 | 0.00 | 0.00 | 52 | 1010.4 |
| 20260504180733 | 71 | 310 | 2.0 | 4.0 | 0.00 | 0.00 | 0.00 | 52 | 1010.3 |
| 20260504180527 | 71 | 307 | 2.0 | 3.0 | 0.00 | 0.00 | 0.00 | 52 | 1010.3 |
| 20260504180243 | 71 | 307 | 3.0 | 4.0 | 0.00 | 0.00 | 0.00 | 52 | 1010.3 |
| 20260504175232 | 72 | 307 | 2.0 | 4.0 | 0.00 | 0.00 | 0.00 | 51 | 1010.3 |
| 20260504174733 | 72 | 311 | 2.0 | 4.0 | 0.00 | 0.00 | 0.00 | 51 | 1010.2 |
| 20260504174233 | 72 | 313 | 1.0 | 3.0 | 0.00 | 0.00 | 0.00 | 50 | 1010.2 |